Погода в Череповце

Россия / Вологодская область     59°07′38″N   37°54′24″E
темп.,
°C
ветер,
м/с
пор.,
м/с
влажн.,
%
обл.,
%
осадки,
мм/ч
давл.,
гПа
погр.,
м
17 мая, пн
пн1700:00+12з23935 0.0 101256
03:00+11зюз22910 0.0 101323
06:00+13зюз12880 0.0 101582
09:00+18зюз117294 0.0 1016485
12:00+20ю2358100 0.0 10161191
15:00+22ююв335140 0.0 10161373
18:00+21юв245960 0.0 1015535
21:00+16в378336 0.0 1015120
18 мая, вт
вт1800:00+14в4118910 0.0 1014203
03:00+14вюв4108970 0.4 1013248
06:00+15вюв4109220 0.3 1013282
09:00+20юв51073100 0.3 1012505
12:00+26юв612475 0.0 10111609
15:00+26ююв712463 0.0 10111503
18:00+24юв713545 0.0 1010768
21:00+21юв6156518 0.0 1011496
19 мая, ср
ср1900:00+19юв512715 0.0 1011317
03:00+16вюв38865 0.0 1010159
06:00+17юв4128115 0.0 1010375
09:00+23ююв613575 0.0 1010806
12:00+25ююв711495 0.0 10101079
15:00+26ююв615485 0.0 10101917
18:00+25юв612543 0.0 1009864
21:00+22юв616615 0.1 1009525
20 мая, чт
чт2000:00+19ююв5147724 1.4 1010421
03:00+16ююв359499 5.1 1011130
06:00+17ю369187 0.1 1011218
09:00+21всв6979100 0.2 1009447
12:00+25вюв695566 0.0 10081031
15:00+26юв8135780 0.1 10061822
18:00+20ююв91775100 3.1 10051099
21:00+17ююв815790 3.6 1005960
21 мая, пт
пт2100:00+13ю9178393 0.0 10061096
03:00+12ю6139089 0.1 1007637
06:00+13ю61289100 0.0 1007815
09:00+13ююз7118596 0.3 1008944
12:00+14юз81179100 0.6 10101169
15:00+14зюз7107398 1.0 10121303
18:00+15зюз486981 0.3 10141303
21:00+12ю3780100 0.3 1015136